Time,TemperatureF,DewpointF,PressureIn,WindDirection,WindDirectionDegrees,WindSpeedMPH,WindSpeedGustMPH,Humidity,HourlyPrecipIn,Conditions,Clouds,dailyrainin,SoftwareType,DateUTC
2013-01-12 00:00:00,24.1,23.0,29.83,WSW,247,0.0,0.0,97,0.00,,,0.00,WeatherTracker,2013-01-12 08:00:00,
2013-01-12 00:05:00,24.1,23.0,29.83,WSW,247,0.0,0.0,97,0.00,,,0.00,WeatherTracker,2013-01-12 08:05:00,
2013-01-12 00:10:00,24.4,23.0,29.83,WSW,247,0.0,0.0,98,0.00,,,0.00,WeatherTracker,2013-01-12 08:10:00,
2013-01-12 00:15:00,24.4,23.0,29.83,WSW,247,0.0,0.0,98,0.00,,,0.00,WeatherTracker,2013-01-12 08:15:00,
2013-01-12 00:25:00,24.6,23.0,29.83,WSW,247,0.0,0.0,98,0.00,,,0.00,WeatherTracker,2013-01-12 08:25:00,
2013-01-12 00:30:00,24.4,23.0,29.83,WSW,247,0.0,0.0,98,0.00,,,0.00,WeatherTracker,2013-01-12 08:30:00,
2013-01-12 00:35:00,24.3,23.0,29.83,WSW,247,0.0,0.0,98,0.00,,,0.00,WeatherTracker,2013-01-12 08:35:00,
2013-01-12 00:40:00,23.9,23.0,29.83,NNE,22,0.0,2.0,98,0.00,,,0.00,WeatherTracker,2013-01-12 08:40:00,
2013-01-12 00:50:00,23.5,23.0,29.83,NE,45,2.0,2.0,98,0.00,,,0.00,WeatherTracker,2013-01-12 08:50:00,
2013-01-12 00:55:00,23.5,23.0,29.83,NE,45,1.0,2.0,98,0.00,,,0.00,WeatherTracker,2013-01-12 08:55:00,
2013-01-12 01:00:00,23.5,23.0,29.83,NE,45,1.0,1.0,98,0.00,,,0.00,WeatherTracker,2013-01-12 09:00:00,
2013-01-12 01:10:00,23.9,23.0,29.85,NE,45,1.0,1.0,98,0.00,,,0.00,WeatherTracker,2013-01-12 09:10:00,
2013-01-12 01:15:00,23.5,23.0,29.85,NE,45,0.0,0.0,98,0.00,,,0.00,WeatherTracker,2013-01-12 09:15:00,
2013-01-12 01:20:00,23.4,21.2,29.85,NE,45,0.0,0.0,98,0.00,,,0.00,WeatherTracker,2013-01-12 09:20:00,
2013-01-12 01:30:00,24.1,23.0,29.85,NE,45,0.0,0.0,98,0.00,,,0.00,WeatherTracker,2013-01-12 09:30:00,
2013-01-12 01:35:00,23.7,23.0,29.85,NE,45,0.0,0.0,98,0.00,,,0.00,WeatherTracker,2013-01-12 09:35:00,
2013-01-12 01:40:00,23.5,23.0,29.85,NE,45,0.0,0.0,98,0.00,,,0.00,WeatherTracker,2013-01-12 09:40:00,
2013-01-12 01:45:00,23.0,21.2,29.85,NE,45,0.0,0.0,98,0.00,,,0.00,WeatherTracker,2013-01-12 09:45:00,
2013-01-12 01:55:00,23.4,21.2,29.85,SSW,202,0.0,0.0,98,0.00,,,0.00,WeatherTracker,2013-01-12 09:55:00,
2013-01-12 02:05:00,23.0,21.2,29.85,SSW,202,0.0,0.0,98,0.00,,,0.00,WeatherTracker,2013-01-12 10:05:00,
2013-01-12 02:10:00,22.5,21.2,29.85,SSW,202,0.0,0.0,98,0.00,,,0.00,WeatherTracker,2013-01-12 10:10:00,
2013-01-12 02:15:00,21.9,19.4,29.85,SSW,202,0.0,0.0,97,0.00,,,0.00,WeatherTracker,2013-01-12 10:15:00,
2013-01-12 02:25:00,21.9,19.4,29.85,SSW,202,0.0,0.0,97,0.00,,,0.00,WeatherTracker,2013-01-12 10:25:00,
2013-01-12 02:35:00,22.1,21.2,29.88,SSW,202,0.0,0.0,98,0.00,,,0.00,WeatherTracker,2013-01-12 10:35:00,
2013-01-12 02:40:00,22.1,21.2,29.88,SSW,202,0.0,0.0,98,0.00,,,0.00,WeatherTracker,2013-01-12 10:40:00,
2013-01-12 02:45:00,22.3,21.2,29.88,SSW,202,0.0,0.0,98,0.00,,,0.00,WeatherTracker,2013-01-12 10:45:00,
2013-01-12 02:55:00,22.3,21.2,29.85,SSW,202,0.0,0.0,98,0.00,,,0.00,WeatherTracker,2013-01-12 10:55:00,
2013-01-12 03:00:00,22.5,21.2,29.85,SSW,202,0.0,0.0,98,0.00,,,0.00,WeatherTracker,2013-01-12 11:00:00,
2013-01-12 03:10:00,22.6,21.2,29.85,SSW,202,0.0,0.0,98,0.00,,,0.00,WeatherTracker,2013-01-12 11:10:00,
2013-01-12 03:15:00,22.6,21.2,29.85,SSW,202,0.0,0.0,98,0.00,,,0.00,WeatherTracker,2013-01-12 11:15:00,
2013-01-12 03:20:00,23.0,21.2,29.85,SSW,202,0.0,0.0,98,0.00,,,0.00,WeatherTracker,2013-01-12 11:20:00,
2013-01-12 03:25:00,23.4,21.2,29.85,SSW,202,0.0,0.0,98,0.00,,,0.00,WeatherTracker,2013-01-12 11:25:00,
2013-01-12 03:30:00,23.2,21.2,29.85,SSW,202,0.0,0.0,98,0.00,,,0.00,WeatherTracker,2013-01-12 11:30:00,
2013-01-12 03:40:00,23.4,21.2,29.85,SSW,202,0.0,0.0,98,0.00,,,0.00,WeatherTracker,2013-01-12 11:40:00,
2013-01-12 03:45:00,23.4,21.2,29.85,SSW,202,0.0,0.0,98,0.00,,,0.00,WeatherTracker,2013-01-12 11:45:00,
2013-01-12 03:50:00,23.2,21.2,29.85,SSW,202,0.0,0.0,98,0.00,,,0.00,WeatherTracker,2013-01-12 11:50:00,
2013-01-12 03:55:00,23.0,21.2,29.85,SSW,202,0.0,0.0,98,0.00,,,0.00,WeatherTracker,2013-01-12 11:55:00,
2013-01-12 04:00:00,22.8,21.2,29.85,SSW,202,0.0,0.0,98,0.00,,,0.00,WeatherTracker,2013-01-12 12:00:00,
2013-01-12 04:05:00,22.3,21.2,29.85,SSW,202,0.0,0.0,98,0.00,,,0.00,WeatherTracker,2013-01-12 12:05:00,
2013-01-12 04:10:00,21.9,19.4,29.85,SSW,202,0.0,0.0,97,0.00,,,0.00,WeatherTracker,2013-01-12 12:10:00,
2013-01-12 04:20:00,21.4,19.4,29.85,SSW,202,0.0,0.0,96,0.00,,,0.00,WeatherTracker,2013-01-12 12:20:00,
2013-01-12 04:25:00,22.1,21.2,29.85,SSW,202,0.0,0.0,98,0.00,,,0.00,WeatherTracker,2013-01-12 12:25:00,
2013-01-12 04:30:00,21.9,21.2,29.85,SSW,202,0.0,0.0,98,0.00,,,0.00,WeatherTracker,2013-01-12 12:30:00,
2013-01-12 04:35:00,21.4,19.4,29.85,SSW,202,0.0,0.0,98,0.00,,,0.00,WeatherTracker,2013-01-12 12:35:00,
2013-01-12 04:45:00,21.0,19.4,29.85,SSW,202,0.0,0.0,97,0.00,,,0.00,WeatherTracker,2013-01-12 12:45:00,
2013-01-12 04:50:00,21.0,19.4,29.85,SSW,202,0.0,0.0,97,0.00,,,0.00,WeatherTracker,2013-01-12 12:50:00,
2013-01-12 04:55:00,20.8,19.4,29.85,SSW,202,0.0,0.0,97,0.00,,,0.00,WeatherTracker,2013-01-12 12:55:00,
2013-01-12 05:00:00,20.8,19.4,29.85,SSW,202,0.0,0.0,97,0.00,,,0.00,WeatherTracker,2013-01-12 13:00:00,
2013-01-12 05:05:00,20.8,19.4,29.85,SSW,202,0.0,0.0,97,0.00,,,0.00,WeatherTracker,2013-01-12 13:05:00,
2013-01-12 05:10:00,21.0,19.4,29.85,SSW,202,0.0,0.0,98,0.00,,,0.00,WeatherTracker,2013-01-12 13:10:00,
2013-01-12 05:15:00,20.7,19.4,29.85,SSW,202,0.0,0.0,98,0.00,,,0.00,WeatherTracker,2013-01-12 13:15:00,
2013-01-12 05:20:00,20.5,19.4,29.85,SSW,202,0.0,0.0,97,0.00,,,0.00,WeatherTracker,2013-01-12 13:20:00,
2013-01-12 05:30:00,20.3,17.6,29.85,NNE,22,0.0,0.0,97,0.00,,,0.00,WeatherTracker,2013-01-12 13:30:00,
2013-01-12 05:35:00,20.8,19.4,29.85,NNE,22,0.0,0.0,97,0.00,,,0.00,WeatherTracker,2013-01-12 13:35:00,
2013-01-12 05:40:00,21.0,19.4,29.85,NNE,22,0.0,0.0,98,0.00,,,0.00,WeatherTracker,2013-01-12 13:40:00,
2013-01-12 05:45:00,21.2,19.4,29.85,NNE,22,0.0,0.0,98,0.00,,,0.00,WeatherTracker,2013-01-12 13:45:00,
2013-01-12 05:50:00,21.0,19.4,29.85,NNE,22,0.0,0.0,98,0.00,,,0.00,WeatherTracker,2013-01-12 13:50:00,
2013-01-12 05:55:00,20.8,19.4,29.85,NNE,22,0.0,0.0,97,0.00,,,0.00,WeatherTracker,2013-01-12 13:55:00,
2013-01-12 06:05:00,20.7,19.4,29.85,NNE,22,0.0,0.0,97,0.00,,,0.00,WeatherTracker,2013-01-12 14:05:00,
2013-01-12 06:10:00,20.7,19.4,29.85,NNE,22,0.0,0.0,97,0.00,,,0.00,WeatherTracker,2013-01-12 14:10:00,
2013-01-12 06:20:00,20.3,17.6,29.85,NNE,22,0.0,0.0,97,0.00,,,0.00,WeatherTracker,2013-01-12 14:20:00,
2013-01-12 06:30:00,19.9,17.6,29.85,NNE,22,0.0,0.0,96,0.00,,,0.00,WeatherTracker,2013-01-12 14:30:00,
2013-01-12 06:35:00,19.9,17.6,29.85,NNE,22,0.0,0.0,96,0.00,,,0.00,WeatherTracker,2013-01-12 14:35:00,
2013-01-12 06:40:00,19.6,17.6,29.85,NNE,22,0.0,0.0,96,0.00,,,0.00,WeatherTracker,2013-01-12 14:40:00,
2013-01-12 06:50:00,19.6,17.6,29.85,NNE,22,0.0,0.0,96,0.00,,,0.00,WeatherTracker,2013-01-12 14:50:00,
2013-01-12 06:55:00,19.0,17.6,29.85,NNE,22,0.0,0.0,96,0.00,,,0.00,WeatherTracker,2013-01-12 14:55:00,
2013-01-12 07:05:00,18.7,17.6,29.85,NNE,22,0.0,0.0,96,0.00,,,0.00,WeatherTracker,2013-01-12 15:05:00,
2013-01-12 07:10:00,18.7,17.6,29.85,NNE,22,0.0,0.0,96,0.00,,,0.00,WeatherTracker,2013-01-12 15:10:00,
2013-01-12 07:20:00,19.0,17.6,29.85,NNE,22,0.0,0.0,97,0.00,,,0.00,WeatherTracker,2013-01-12 15:20:00,
2013-01-12 07:25:00,19.0,17.6,29.85,NNE,22,0.0,0.0,97,0.00,,,0.00,WeatherTracker,2013-01-12 15:25:00,
2013-01-12 07:35:00,19.6,17.6,29.88,ESE,112,0.0,0.0,98,0.00,,,0.00,WeatherTracker,2013-01-12 15:35:00,
2013-01-12 07:45:00,19.4,17.6,29.88,ESE,112,0.0,0.0,98,0.00,,,0.00,WeatherTracker,2013-01-12 15:45:00,
2013-01-12 07:50:00,19.6,17.6,29.83,ESE,112,0.0,0.0,97,0.00,,,0.00,WeatherTracker,2013-01-12 15:50:00,
2013-01-12 07:55:00,19.8,17.6,29.83,ESE,112,0.0,0.0,98,0.00,,,0.00,WeatherTracker,2013-01-12 15:55:00,
2013-01-12 08:00:00,19.8,17.6,29.83,ESE,112,0.0,0.0,98,0.00,,,0.00,WeatherTracker,2013-01-12 16:00:00,
2013-01-12 08:10:00,19.9,19.4,29.85,ESE,112,0.0,0.0,98,0.00,,,0.00,WeatherTracker,2013-01-12 16:10:00,
2013-01-12 08:15:00,20.1,19.4,29.85,ESE,112,0.0,0.0,98,0.00,,,0.00,WeatherTracker,2013-01-12 16:15:00,
2013-01-12 08:20:00,20.3,19.4,29.85,ESE,112,0.0,0.0,98,0.00,,,0.00,WeatherTracker,2013-01-12 16:20:00,
2013-01-12 08:30:00,22.6,21.2,29.85,ESE,112,0.0,0.0,98,0.00,,,0.00,WeatherTracker,2013-01-12 16:30:00,
2013-01-12 08:35:00,25.2,24.8,29.85,ESE,112,0.0,0.0,98,0.00,,,0.00,WeatherTracker,2013-01-12 16:35:00,
2013-01-12 08:40:00,25.0,23.0,29.85,ESE,112,0.0,0.0,98,0.00,,,0.00,WeatherTracker,2013-01-12 16:40:00,
2013-01-12 08:45:00,24.3,23.0,29.85,ESE,112,0.0,0.0,98,0.00,,,0.00,WeatherTracker,2013-01-12 16:45:00,
2013-01-12 08:55:00,24.4,23.0,29.85,ESE,112,0.0,0.0,98,0.00,,,0.00,WeatherTracker,2013-01-12 16:55:00,
2013-01-12 09:05:00,25.0,23.0,29.85,ESE,112,0.0,0.0,98,0.00,,,0.00,WeatherTracker,2013-01-12 17:05:00,
2013-01-12 09:10:00,25.3,24.8,29.85,ESE,112,0.0,0.0,98,0.00,,,0.00,WeatherTracker,2013-01-12 17:10:00,
2013-01-12 09:20:00,25.7,24.8,29.85,ESE,112,0.0,0.0,98,0.00,,,0.00,WeatherTracker,2013-01-12 17:20:00,
2013-01-12 09:30:00,26.2,24.8,29.85,ESE,112,0.0,0.0,98,0.00,,,0.00,WeatherTracker,2013-01-12 17:30:00,
2013-01-12 09:35:00,26.6,24.8,29.85,East,90,0.0,0.0,98,0.00,,,0.00,WeatherTracker,2013-01-12 17:35:00,
2013-01-12 09:50:00,26.8,24.8,29.85,ENE,67,0.0,0.0,98,0.00,,,0.00,WeatherTracker,2013-01-12 17:50:00,
2013-01-12 10:00:00,27.1,26.6,29.85,ENE,67,0.0,0.0,98,0.00,,,0.00,WeatherTracker,2013-01-12 18:00:00,
2013-01-12 10:05:00,27.5,26.6,29.88,ENE,67,0.0,1.0,98,0.00,,,0.00,WeatherTracker,2013-01-12 18:05:00,
2013-01-12 10:10:00,27.9,26.6,29.88,ENE,67,0.0,0.0,98,0.00,,,0.00,WeatherTracker,2013-01-12 18:10:00,
2013-01-12 10:20:00,28.4,26.6,29.85,ENE,67,0.0,0.0,98,0.00,,,0.00,WeatherTracker,2013-01-12 18:20:00,
2013-01-12 10:30:00,28.9,28.4,29.85,ENE,67,0.0,0.0,98,0.00,,,0.00,WeatherTracker,2013-01-12 18:30:00,
2013-01-12 10:40:00,29.5,28.4,29.88,ENE,67,0.0,0.0,98,0.00,,,0.00,WeatherTracker,2013-01-12 18:40:00,
2013-01-12 10:45:00,29.3,28.4,29.88,ESE,112,0.0,0.0,98,0.00,,,0.00,WeatherTracker,2013-01-12 18:45:00,
2013-01-12 10:55:00,32.2,32.0,29.85,ESE,112,0.0,0.0,98,0.00,,,0.00,WeatherTracker,2013-01-12 18:55:00,
2013-01-12 11:00:00,31.5,30.2,29.85,ESE,112,0.0,0.0,98,0.00,,,0.00,WeatherTracker,2013-01-12 19:00:00,
2013-01-12 11:05:00,31.3,30.2,29.85,ESE,112,0.0,0.0,98,0.00,,,0.00,WeatherTracker,2013-01-12 19:05:00,
2013-01-12 11:15:00,32.2,32.0,29.85,ESE,112,0.0,0.0,98,0.00,,,0.00,WeatherTracker,2013-01-12 19:15:00,
2013-01-12 11:20:00,32.0,30.2,29.85,NNE,22,1.0,0.0,98,0.00,,,0.00,WeatherTracker,2013-01-12 19:20:00,
2013-01-12 11:30:00,32.7,33.8,29.85,NNW,337,1.0,0.0,98,0.00,,,0.00,WeatherTracker,2013-01-12 19:30:00,
2013-01-12 11:40:00,32.9,33.8,29.85,NNW,337,1.0,0.0,98,0.00,,,0.00,WeatherTracker,2013-01-12 19:40:00,
2013-01-12 11:45:00,32.9,33.8,29.85,NW,315,0.0,0.0,98,0.00,,,0.00,WeatherTracker,2013-01-12 19:45:00,
2013-01-12 11:50:00,32.9,33.8,29.85,North,0,1.0,0.0,98,0.00,,,0.00,WeatherTracker,2013-01-12 19:50:00,
2013-01-12 12:00:00,33.3,33.8,29.85,NW,315,1.0,2.0,98,0.00,,,0.00,WeatherTracker,2013-01-12 20:00:00,
2013-01-12 12:10:00,34.2,33.8,29.83,NNW,337,2.0,2.0,98,0.00,,,0.00,WeatherTracker,2013-01-12 20:10:00,
2013-01-12 12:15:00,34.9,35.6,29.83,NNW,337,2.0,2.0,98,0.00,,,0.00,WeatherTracker,2013-01-12 20:15:00,
2013-01-12 12:25:00,38.3,37.4,29.85,NNE,22,1.0,1.0,97,0.00,,,0.00,WeatherTracker,2013-01-12 20:25:00,
2013-01-12 12:30:00,39.7,37.4,29.85,ENE,67,1.0,2.0,94,0.00,,,0.00,WeatherTracker,2013-01-12 20:30:00,
2013-01-12 12:35:00,39.0,35.6,29.85,NE,45,3.0,3.0,88,0.00,,,0.00,WeatherTracker,2013-01-12 20:35:00,
2013-01-12 12:40:00,39.6,35.6,29.85,ENE,67,0.0,2.0,85,0.00,,,0.00,WeatherTracker,2013-01-12 20:40:00,
2013-01-12 12:50:00,38.7,33.8,29.88,NNW,337,1.0,3.0,81,0.00,,,0.00,WeatherTracker,2013-01-12 20:50:00,
2013-01-12 12:55:00,39.7,33.8,29.88,NNE,22,2.0,3.0,80,0.00,,,0.00,WeatherTracker,2013-01-12 20:55:00,
2013-01-12 13:00:00,39.2,32.0,29.88,NNW,337,4.0,4.0,74,0.00,,,0.00,WeatherTracker,2013-01-12 21:00:00,
2013-01-12 13:05:00,40.3,33.8,29.85,NNW,337,1.0,2.0,75,0.00,,,0.00,WeatherTracker,2013-01-12 21:05:00,
2013-01-12 13:15:00,40.1,30.2,29.85,ENE,67,3.0,3.0,69,0.00,,,0.00,WeatherTracker,2013-01-12 21:15:00,
2013-01-12 13:20:00,39.9,30.2,29.85,ESE,112,3.0,3.0,66,0.00,,,0.00,WeatherTracker,2013-01-12 21:20:00,
2013-01-12 13:25:00,39.7,30.2,29.85,ESE,112,4.0,4.0,66,0.00,,,0.00,WeatherTracker,2013-01-12 21:25:00,
2013-01-12 13:30:00,39.9,28.4,29.85,ESE,112,3.0,3.0,63,0.00,,,0.00,WeatherTracker,2013-01-12 21:30:00,
2013-01-12 13:35:00,39.4,26.6,29.85,ENE,67,4.0,4.0,62,0.00,,,0.00,WeatherTracker,2013-01-12 21:35:00,
2013-01-12 13:40:00,39.7,30.2,29.85,South,180,0.0,0.0,67,0.00,,,0.00,WeatherTracker,2013-01-12 21:40:00,
2013-01-12 13:45:00,39.9,30.2,29.85,NNE,22,4.0,4.0,66,0.00,,,0.00,WeatherTracker,2013-01-12 21:45:00,
2013-01-12 13:55:00,39.9,28.4,29.85,ENE,67,4.0,4.0,64,0.00,,,0.00,WeatherTracker,2013-01-12 21:55:00,
2013-01-12 14:00:00,39.2,28.4,29.85,ESE,112,5.0,5.0,66,0.00,,,0.00,WeatherTracker,2013-01-12 22:00:00,
2013-01-12 14:06:00,37.0,28.4,29.85,East,90,5.0,6.0,68,0.00,,,0.00,WeatherTracker,2013-01-12 22:06:00,
2013-01-12 14:15:00,36.1,30.2,29.85,East,90,7.0,7.0,74,0.00,,,0.00,WeatherTracker,2013-01-12 22:15:00,
2013-01-12 14:25:00,36.7,30.2,29.83,East,90,4.0,6.0,76,0.00,,,0.00,WeatherTracker,2013-01-12 22:25:00,
2013-01-12 14:35:00,35.6,26.6,29.83,ESE,112,8.0,8.0,69,0.00,,,0.00,WeatherTracker,2013-01-12 22:35:00,
2013-01-12 14:45:00,35.8,26.6,29.83,ENE,67,6.0,7.0,68,0.00,,,0.00,WeatherTracker,2013-01-12 22:45:00,
2013-01-12 14:55:00,35.8,26.6,29.85,East,90,6.0,7.0,67,0.00,,,0.00,WeatherTracker,2013-01-12 22:55:00,
2013-01-12 15:00:00,36.0,26.6,29.85,ESE,112,5.0,5.0,68,0.00,,,0.00,WeatherTracker,2013-01-12 23:00:00,
2013-01-12 15:10:00,36.0,26.6,29.85,ESE,112,5.0,5.0,70,0.00,,,0.00,WeatherTracker,2013-01-12 23:10:00,
2013-01-12 15:20:00,35.6,28.4,29.85,ENE,67,5.0,5.0,71,0.00,,,0.00,WeatherTracker,2013-01-12 23:20:00,
2013-01-12 15:25:00,35.8,28.4,29.85,East,90,3.0,6.0,71,0.00,,,0.00,WeatherTracker,2013-01-12 23:25:00,
2013-01-12 15:35:00,35.1,26.6,29.85,ENE,67,4.0,4.0,71,0.00,,,0.00,WeatherTracker,2013-01-12 23:35:00,
2013-01-12 15:40:00,34.5,26.6,29.85,East,90,6.0,6.0,74,0.00,,,0.00,WeatherTracker,2013-01-12 23:40:00,
2013-01-12 15:45:00,34.3,28.4,29.85,ESE,112,5.0,5.0,76,0.00,,,0.00,WeatherTracker,2013-01-12 23:45:00,
2013-01-12 15:55:00,33.6,28.4,29.85,East,90,5.0,6.0,77,0.00,,,0.00,WeatherTracker,2013-01-12 23:55:00,
2013-01-12 16:05:00,33.1,28.4,29.85,ESE,112,4.0,6.0,80,0.00,,,0.00,WeatherTracker,2013-01-13 00:05:00,
2013-01-12 16:10:00,32.5,28.4,29.85,ENE,67,4.0,4.0,81,0.00,,,0.00,WeatherTracker,2013-01-13 00:10:00,
2013-01-12 16:20:00,31.6,26.6,29.85,NE,45,4.0,5.0,84,0.00,,,0.00,WeatherTracker,2013-01-13 00:20:00,
2013-01-12 16:25:00,31.5,26.6,29.85,East,90,3.0,3.0,84,0.00,,,0.00,WeatherTracker,2013-01-13 00:25:00,
2013-01-12 16:30:00,30.4,24.8,29.85,ENE,67,3.0,3.0,86,0.00,,,0.00,WeatherTracker,2013-01-13 00:30:00,
2013-01-12 16:35:00,29.7,24.8,29.85,ESE,112,4.0,5.0,88,0.00,,,0.00,WeatherTracker,2013-01-13 00:35:00,
2013-01-12 16:45:00,28.6,26.6,29.85,ESE,112,6.0,6.0,94,0.00,,,0.00,WeatherTracker,2013-01-13 00:45:00,
2013-01-12 16:55:00,27.7,26.6,29.85,ENE,67,6.0,6.0,98,0.00,,,0.00,WeatherTracker,2013-01-13 00:55:00,
2013-01-12 17:05:00,27.5,26.6,29.85,ENE,67,4.0,4.0,98,0.00,,,0.00,WeatherTracker,2013-01-13 01:05:00,
2013-01-12 17:10:00,27.5,26.6,29.85,ENE,67,4.0,6.0,98,0.00,,,0.00,WeatherTracker,2013-01-13 01:10:00,
2013-01-12 17:15:00,27.1,26.6,29.85,ESE,112,4.0,4.0,98,0.00,,,0.00,WeatherTracker,2013-01-13 01:15:00,
2013-01-12 17:25:00,27.1,26.6,29.88,ESE,112,4.0,4.0,98,0.00,,,0.00,WeatherTracker,2013-01-13 01:25:00,
2013-01-12 17:30:00,27.1,26.6,29.88,ESE,112,4.0,6.0,98,0.00,,,0.00,WeatherTracker,2013-01-13 01:30:00,
2013-01-12 17:40:00,27.1,26.6,29.88,East,90,4.0,7.0,98,0.00,,,0.00,WeatherTracker,2013-01-13 01:40:00,
2013-01-12 17:50:00,27.1,26.6,29.88,SE,135,5.0,6.0,98,0.00,,,0.00,WeatherTracker,2013-01-13 01:50:00,
2013-01-12 17:55:00,27.1,26.6,29.88,ESE,112,3.0,3.0,98,0.00,,,0.00,WeatherTracker,2013-01-13 01:55:00,
2013-01-12 18:05:00,27.3,26.6,29.88,SSE,157,4.0,5.0,98,0.00,,,0.00,WeatherTracker,2013-01-13 02:05:00,
2013-01-12 18:15:00,27.5,26.6,29.88,ENE,67,5.0,6.0,98,0.00,,,0.00,WeatherTracker,2013-01-13 02:15:00,
2013-01-12 18:20:00,27.5,26.6,29.88,SSE,157,4.0,4.0,98,0.00,,,0.00,WeatherTracker,2013-01-13 02:20:00,
2013-01-12 18:30:00,27.7,26.6,29.88,ESE,112,4.0,4.0,98,0.00,,,0.00,WeatherTracker,2013-01-13 02:30:00,
2013-01-12 18:35:00,27.7,26.6,29.88,ESE,112,3.0,3.0,98,0.00,,,0.00,WeatherTracker,2013-01-13 02:35:00,
2013-01-12 18:40:00,27.7,26.6,29.88,ESE,112,4.0,4.0,98,0.00,,,0.00,WeatherTracker,2013-01-13 02:40:00,
2013-01-12 18:45:00,27.9,26.6,29.88,ENE,67,2.0,3.0,98,0.00,,,0.00,WeatherTracker,2013-01-13 02:45:00,
2013-01-12 18:55:00,27.9,26.6,29.88,ESE,112,3.0,4.0,98,0.00,,,0.00,WeatherTracker,2013-01-13 02:55:00,
2013-01-12 19:05:00,28.0,26.6,29.88,ESE,112,3.0,3.0,98,0.00,,,0.00,WeatherTracker,2013-01-13 03:05:00,
2013-01-12 19:15:00,28.0,26.6,29.88,ESE,112,2.0,2.0,98,0.00,,,0.00,WeatherTracker,2013-01-13 03:15:00,
2013-01-12 19:20:00,28.0,26.6,29.88,East,90,2.0,2.0,98,0.00,,,0.00,WeatherTracker,2013-01-13 03:20:00,
2013-01-12 19:25:00,28.0,26.6,29.88,East,90,2.0,2.0,98,0.00,,,0.00,WeatherTracker,2013-01-13 03:25:00,
2013-01-12 19:35:00,28.2,26.6,29.85,ESE,112,4.0,4.0,98,0.00,,,0.00,WeatherTracker,2013-01-13 03:35:00,
2013-01-12 19:40:00,28.2,26.6,29.85,ENE,67,1.0,1.0,98,0.00,,,0.00,WeatherTracker,2013-01-13 03:40:00,
2013-01-12 19:50:00,28.2,26.6,29.88,East,90,4.0,4.0,98,0.00,,,0.00,WeatherTracker,2013-01-13 03:50:00,
2013-01-12 20:00:00,28.4,26.6,29.88,ESE,112,4.0,4.0,98,0.00,,,0.00,WeatherTracker,2013-01-13 04:00:00,
2013-01-12 20:05:00,28.4,26.6,29.88,ESE,112,3.0,3.0,98,0.00,,,0.00,WeatherTracker,2013-01-13 04:05:00,
2013-01-12 20:10:00,28.4,26.6,29.88,ENE,67,2.0,3.0,98,0.00,,,0.00,WeatherTracker,2013-01-13 04:10:00,
2013-01-12 20:20:00,28.4,26.6,29.91,ENE,67,3.0,3.0,98,0.00,,,0.00,WeatherTracker,2013-01-13 04:20:00,
2013-01-12 20:25:00,28.4,26.6,29.91,ESE,112,5.0,5.0,98,0.00,,,0.00,WeatherTracker,2013-01-13 04:25:00,
2013-01-12 20:35:00,28.4,26.6,29.91,SSE,157,3.0,4.0,98,0.00,,,0.00,WeatherTracker,2013-01-13 04:35:00,
2013-01-12 20:40:00,28.2,26.6,29.91,ESE,112,2.0,3.0,98,0.00,,,0.00,WeatherTracker,2013-01-13 04:40:00,
2013-01-12 20:45:00,28.2,26.6,29.91,ESE,112,3.0,6.0,98,0.00,,,0.00,WeatherTracker,2013-01-13 04:45:00,
2013-01-12 20:50:00,28.2,26.6,29.88,ENE,67,4.0,4.0,98,0.00,,,0.00,WeatherTracker,2013-01-13 04:50:00,
2013-01-12 20:55:00,28.2,26.6,29.88,ENE,67,1.0,1.0,98,0.00,,,0.00,WeatherTracker,2013-01-13 04:55:00,
2013-01-12 21:00:00,28.2,26.6,29.88,SE,135,3.0,3.0,98,0.00,,,0.00,WeatherTracker,2013-01-13 05:00:00,
2013-01-12 21:05:00,28.0,26.6,29.91,ESE,112,3.0,3.0,98,0.00,,,0.00,WeatherTracker,2013-01-13 05:05:00,
2013-01-12 21:10:00,28.0,26.6,29.91,ESE,112,2.0,2.0,98,0.00,,,0.00,WeatherTracker,2013-01-13 05:10:00,
2013-01-12 21:15:00,28.2,26.6,29.91,SE,135,2.0,3.0,98,0.00,,,0.00,WeatherTracker,2013-01-13 05:15:00,
2013-01-12 21:25:00,28.0,26.6,29.88,SSW,202,2.0,0.0,98,0.00,,,0.00,WeatherTracker,2013-01-13 05:25:00,
2013-01-12 21:35:00,28.0,26.6,29.91,ESE,112,2.0,2.0,98,0.00,,,0.00,WeatherTracker,2013-01-13 05:35:00,
2013-01-12 21:45:00,28.0,26.6,29.91,ESE,112,3.0,3.0,98,0.00,,,0.00,WeatherTracker,2013-01-13 05:45:00,
2013-01-12 21:50:00,28.0,26.6,29.91,East,90,3.0,4.0,98,0.00,,,0.00,WeatherTracker,2013-01-13 05:50:00,
2013-01-12 21:55:00,27.9,26.6,29.91,ESE,112,1.0,2.0,98,0.00,,,0.00,WeatherTracker,2013-01-13 05:55:00,
2013-01-12 22:00:00,27.9,26.6,29.91,ENE,67,3.0,3.0,98,0.00,,,0.00,WeatherTracker,2013-01-13 06:00:00,
2013-01-12 22:05:00,27.9,26.6,29.91,ENE,67,2.0,2.0,98,0.00,,,0.00,WeatherTracker,2013-01-13 06:05:00,
2013-01-12 22:10:00,27.9,26.6,29.91,NE,45,0.0,0.0,98,0.00,,,0.00,WeatherTracker,2013-01-13 06:10:00,
2013-01-12 22:20:00,28.0,26.6,29.91,ENE,67,0.0,0.0,98,0.00,,,0.00,WeatherTracker,2013-01-13 06:20:00,
2013-01-12 22:25:00,28.0,26.6,29.91,ENE,67,0.0,0.0,98,0.00,,,0.00,WeatherTracker,2013-01-13 06:25:00,
2013-01-12 22:35:00,28.2,26.6,29.91,SSW,202,2.0,2.0,98,0.00,,,0.00,WeatherTracker,2013-01-13 06:35:00,
2013-01-12 22:45:00,28.2,26.6,29.91,SSW,202,2.0,2.0,98,0.00,,,0.00,WeatherTracker,2013-01-13 06:45:00,
2013-01-12 22:50:00,28.2,26.6,29.91,South,180,0.0,0.0,98,0.00,,,0.00,WeatherTracker,2013-01-13 06:50:00,
2013-01-12 22:55:00,28.2,26.6,29.91,SSW,202,0.0,0.0,98,0.00,,,0.00,WeatherTracker,2013-01-13 06:55:00,
2013-01-12 23:00:00,28.0,26.6,29.91,SSW,202,2.0,5.0,98,0.00,,,0.00,WeatherTracker,2013-01-13 07:00:00,
2013-01-12 23:05:00,28.0,26.6,29.91,East,90,2.0,2.0,98,0.00,,,0.00,WeatherTracker,2013-01-13 07:05:00,
2013-01-12 23:10:00,28.0,26.6,29.91,ESE,112,1.0,1.0,98,0.00,,,0.00,WeatherTracker,2013-01-13 07:10:00,
2013-01-12 23:20:00,28.0,26.6,29.91,SSW,202,2.0,2.0,98,0.00,,,0.00,WeatherTracker,2013-01-13 07:20:00,
2013-01-12 23:30:00,27.9,26.6,29.91,ESE,112,1.0,1.0,98,0.00,,,0.00,WeatherTracker,2013-01-13 07:30:00,
2013-01-12 23:35:00,27.9,26.6,29.91,SW,225,1.0,1.0,98,0.00,,,0.00,WeatherTracker,2013-01-13 07:35:00,
2013-01-12 23:40:00,27.9,26.6,29.91,WSW,247,1.0,1.0,98,0.00,,,0.00,WeatherTracker,2013-01-13 07:40:00,
2013-01-12 23:45:00,28.0,26.6,29.91,WSW,247,0.0,0.0,98,0.00,,,0.00,WeatherTracker,2013-01-13 07:45:00,
2013-01-12 23:50:00,28.0,26.6,29.91,East,90,3.0,3.0,98,0.00,,,0.00,WeatherTracker,2013-01-13 07:50:00,